sat.trackr.live / text

‹ back to catalog

COSMOS 2617

NORAD 68828 · 2026-090C

PAYLOAD ACTIVE UNKNOWN

§ Identity

Operator
Country
CIS
Launch date
2026-04-23
Launch site
PLMSC
Launch vehicle
Mass (kg)
RCS (m²)

External: N2YO · Heavens-Above · Gunter

§ Orbital elements

Epoch: 2026-05-25T04:19:30.531072Z

Period
91.05 min
Inclination
96.6462°
Eccentricity
0.0018101
Mean motion
15.81585916 rev/d
Perigee alt
313.8 km
Apogee alt
338.1 km
Semi-major
6,704.1 km
B*
1.6594e-4
RAAN
63.6921°
Arg perigee
122.5260°
Mean anomaly
237.7762°
Rev number
503

§ Raw data

COSMOS 26171 68828U 26090C   26145.18021448  .00033310  00000+0  16594-3 0  99922 68828  96.6462  63.6921 0018101 122.5260 237.7762 15.81585916  5034

JSON: /api/v1/satellites/68828 · /tle

For live sub-satellite position, see the globe view (requires WebGL).

§ Visibility from observer

Set your observer location to see the next 7 days of passes ≥ 10°. The values pass through the URL so the page stays shareable.

No JS? Fill the form by hand. The geolocation button needs JavaScript.